This is the latest recevied weather packets stored in our database for station/object KE0YJJ-14. If no packets are shown the sender has not sent any weather packets the latest 10 day(s).
| Time | Temp. | Humidity | Pressure | Rain* | Wind** | Luminosity | Snow |
|---|---|---|---|---|---|---|---|
| 1778012623 | 9.44° C | 38% | - | 0 mm | - | - | - |
| 1778012320 | 11.11° C | 39% | - | 0 mm | - | - | - |
| 1778012017 | 10.56° C | 39% | - | 0 mm | - | - | - |
| 1778011716 | 9.44° C | 39% | - | 0 mm | - | - | - |
| 1778011412 | 10° C | 40% | - | 0 mm | - | - | - |
| 1778011108 | 10° C | 39% | - | 0 mm | - | - | - |
| 1778010805 | 9.44° C | 36% | - | 0 mm | - | - | - |
| 1778010502 | 9.44° C | 36% | - | 0 mm | - | - | - |
| 1778010199 | 9.44° C | 39% | - | 0 mm | - | - | - |
| 1778009894 | 9.44° C | 39% | - | 0 mm | - | - | - |
| 1778009593 | 8.89° C | 40% | - | 0 mm | - | - | - |
| 1778009290 | 8.33° C | 39% | - | 0 mm | - | - | - |
| 1778008988 | 8.89° C | 38% | - | 0 mm | - | - | - |
| 1778008686 | 9.44° C | 37% | - | 0 mm | - | - | - |
| 1778008384 | 8.89° C | 36% | - | 0 mm | - | - | - |
| 1778008080 | 10° C | 36% | - | 0 mm | - | - | - |
| 1778007775 | 9.44° C | 36% | - | 0 mm | - | - | - |
| 1778007472 | 9.44° C | 37% | - | 0 mm | - | - | - |
| 1778007168 | 9.44° C | 36% | - | 0 mm | - | - | - |
| 1778006864 | 8.89° C | 36% | - | 0 mm | - | - | - |
| 1778006562 | 8.89° C | 38% | - | 0 mm | - | - | - |
| 1778006259 | 8.89° C | 36% | - | 0 mm | - | - | - |
| 1778005956 | 8.89° C | 36% | - | 0 mm | - | - | - |
| 1778005652 | 8.33° C | 37% | - | 0 mm | - | - | - |
| 1778005349 | 8.89° C | 37% | - | 0 mm | - | - | - |
* Rain latest hour (hover to see other rain measurements)
** Current wind speed in m/s (hover to see current wind gust speed)